EW7906 Weather Reports


Display with metric or nautical units.
time (UTC)temp
F
wind
direction
speed
MPH
gust
MPH
rain 1hr
in
rain 24hr
in
rain mn
in
humidity
%
barometer
mb
20260906073428 144 153 0.0 6.0 0.00 0.00 0.00 100 1012.5
20260906072923 144 181 0.0 4.0 0.00 0.00 0.00 100 1012.6
20260906072413 145 237 0.0 4.0 0.00 0.00 0.00 100 1012.5
20260906071857 145 164 0.0 6.0 0.00 0.00 0.00 100 1012.6
20260906071335 145 154 1.0 6.0 0.00 0.00 0.00 100 1012.6
20260906070812 145 150 3.0 6.0 0.00 0.00 0.00 100 1012.8
20260906070311 145 189 0.0 6.0 0.00 0.00 0.00 100 1012.8
20260906065757 145 192 2.0 6.0 0.00 0.00 0.00 100 1012.9
20260906065252 145 170 2.0 5.0 0.00 0.00 0.00 100 1012.9
20260906064733 145 154 0.0 2.0 0.00 0.00 0.00 100 1012.9
20260906064504 145 154 0.0 8.0 0.00 0.00 0.00 100 1013.0
20260906063712 145 154 2.0 8.0 0.00 0.00 0.00 100 1013.1
20260906063203 145 120 0.0 6.0 0.00 0.00 0.00 100 1013.1
20260906062652 145 178 2.0 6.0 0.00 0.00 0.00 100 1013.1
20260906062145 145 94 0.0 3.0 0.00 0.00 0.00 100 1013.1
20260906061643 145 163 0.0 6.0 0.00 0.00 0.00 100 1013.1
20260906061131 145 160 2.0 6.0 0.00 0.00 0.00 100 1013.2
20260906060626 145 177 0.0 6.0 0.00 0.00 0.00 100 1013.3
20260906060110 145 151 4.0 6.0 0.00 0.00 0.00 100 1013.2
20260906055610 145 137 0.0 5.0 0.00 0.00 0.00 100 1013.2
20260906055111 145 149 2.0 5.0 0.00 0.00 0.00 100 1013.2
20260906054605 145 167 0.0 6.0 0.00 0.00 0.00 100 1013.3
20260906054313 145 167 0.0 6.0 0.00 0.00 0.00 100 1013.2
20260906053543 145 146 0.0 5.0 0.00 0.00 0.00 100 1013.0
20260906053042 145 146 0.0 5.0 0.00 0.00 0.00 100 1012.9
20260906052532 145 116 0.0 6.0 0.00 0.00 0.00 100 1012.9
20260906052030 145 153 0.0 6.0 0.00 0.00 0.00 100 1012.9
20260906051531 145 129 4.0 6.0 0.00 0.00 0.00 100 1013.0
20260906051023 145 125 0.0 4.0 0.00 0.00 0.00 100 1013.1
20260906050520 145 157 0.0 6.0 0.00 0.00 0.00 100 1013.2
20260906050015 145 144 3.0 6.0 0.00 0.00 0.00 100 1013.1
20260906045515 145 161 4.0 9.0 0.00 0.00 0.00 100 1013.2
20260906045014 145 208 0.0 10.0 0.00 0.00 0.00 100 1013.1
20260906044500 145 126 6.0 10.0 0.00 0.00 0.00 100 1013.2
20260906044231 145 170 4.0 8.0 0.00 0.00 0.00 100 1013.2
20260906043733 145 178 2.0 10.0 0.00 0.00 0.00 100 1013.2
20260906043606 145 175 4.0 10.0 0.00 0.00 0.00 100 1013.1
20260906042457 145 109 2.0 9.0 0.00 0.00 0.00 100 1013.1
20260906041957 145 123 1.0 9.0 0.00 0.00 0.00 100 1013.0
20260906041458 145 172 5.0 8.0 0.00 0.00 0.00 100 1012.9
20260906041227 145 181 1.0 6.0 0.00 0.00 0.00 100 1012.9
20260906040458 145 146 0.0 8.0 0.00 0.00 0.00 100 1012.9
20260906035948 145 98 4.0 8.0 0.00 0.00 0.00 100 1012.9
20260906035444 145 150 4.0 8.0 0.00 0.00 0.00 100 1012.8
20260906034940 145 97 4.0 10.0 0.00 0.00 0.00 100 1012.8
20260906034437 145 143 5.0 10.0 0.00 0.00 0.00 100 1012.8
20260906033936 145 161 4.0 6.0 0.00 0.00 0.00 100 1012.8
20260906033437 146 160 0.0 6.0 0.00 0.00 0.00 100 1012.9
20260906032937 146 167 5.0 10.0 0.00 0.00 0.00 100 1012.9
20260906032435 146 150 2.0 10.0 0.00 0.00 0.00 100 1012.8
20260906031936 146 115 2.0 8.0 0.00 0.00 0.00 100 1012.8
20260906031427 146 161 3.0 8.0 0.00 0.00 0.00 100 1012.5
20260906030927 146 163 2.0 7.0 0.00 0.00 0.00 100 1012.4
20260906030427 146 92 2.0 7.0 0.00 0.00 0.00 100 1012.3
20260906030151 146 143 3.0 10.0 0.00 0.00 0.00 100 1012.3
20260906025412 146 57 5.0 12.0 0.00 0.00 0.00 100 1012.3
20260906024910 146 163 5.0 12.0 0.00 0.00 0.00 100 1012.2
20260906024410 146 156 3.0 10.0 0.00 0.00 0.00 100 1012.0
20260906023909 146 170 3.0 8.0 0.00 0.00 0.00 100 1011.8
20260906023408 146 92 4.0 8.0 0.00 0.00 0.00 100 1011.7
20260906022909 146 136 1.0 9.0 0.00 0.00 0.00 100 1011.5
20260906022404 146 140 1.0 9.0 0.00 0.00 0.00 100 1011.4
20260906021905 146 142 5.0 10.0 0.00 0.00 0.00 100 1011.2
20260906021405 146 147 2.0 10.0 0.00 0.00 0.00 100 1011.1
20260906020900 146 123 4.0 9.0 0.00 0.00 0.00 100 1011.1
20260906020401 146 108 0.0 9.0 0.00 0.00 0.00 100 1011.0
20260906015857 146 151 0.0 9.0 0.00 0.00 0.00 100 1010.9
20260906015624 147 119 3.0 8.0 0.00 0.00 0.00 100 1010.9
20260906014848 146 132 4.0 8.0 0.00 0.00 0.00 100 1010.9
20260906014616 147 146 3.0 8.0 0.00 0.00 0.00 100 1010.9
20260906013846 147 163 2.0 8.0 0.00 0.00 0.00 100 1010.9
20260906013345 147 140 0.0 10.0 0.00 0.00 0.00 100 1010.9
20260906012844 147 127 5.0 11.0 0.00 0.00 0.00 100 1010.7
20260906012341 147 174 5.0 13.0 0.00 0.00 0.00 100 1010.8
20260906011842 147 144 2.0 13.0 0.00 0.00 0.00 100 1010.7
20260906011342 147 129 5.0 12.0 0.00 0.00 0.00 100 1010.7
20260906010841 147 146 5.0 13.0 0.00 0.00 0.00 100 1010.6
20260906010341 147 129 4.0 13.0 0.00 0.00 0.00 100 1010.6
20260906005841 147 106 3.0 11.0 0.00 0.00 0.00 100 1010.6
20260906005606 148 68 3.0 11.0 0.00 0.00 0.00 100 1010.5
20260906004835 147 150 2.0 8.0 0.00 0.00 0.00 100 1010.5
20260906004333 148 144 0.0 9.0 0.00 0.00 0.00 100 1010.5
20260906004055 148 157 4.0 9.0 0.00 0.00 0.00 100 1010.5
20260906003324 148 137 0.0 5.0 0.00 0.00 0.00 100 1010.5
20260906002821 148 113 0.0 4.0 0.00 0.00 0.00 100 1010.4
20260906002306 148 149 0.0 4.0 0.00 0.00 0.00 100 1010.3
20260906001800 148 154 0.0 0.0 0.00 0.00 0.00 100 1010.3
20260906001241 148 154 0.0 0.0 0.00 0.00 0.00 100 1010.3
20260906000735 148 154 0.0 2.0 0.00 0.00 0.00 100 1010.3
20260906000226 148 154 0.0 5.0 0.00 0.00 0.00 100 1010.3
20260905235723 148 154 2.0 5.0 0.00 0.00 0.00 100 1010.2
20260905235220 148 147 0.0 4.0 0.00 0.00 0.00 100 1010.2
20260905234704 148 147 0.0 4.0 0.00 0.00 0.00 100 1010.2
20260905234158 148 74 0.0 3.0 0.00 0.00 0.00 100 1010.2
20260905233648 148 40 0.0 2.0 0.00 0.00 0.00 100 1010.0
20260905233147 148 36 0.0 6.0 0.00 0.00 0.00 100 1010.0
20260905232637 148 36 2.0 6.0 0.00 0.00 0.00 100 1010.0
20260905232113 148 164 1.0 8.0 0.00 0.00 0.00 100 1010.0
20260905231613 149 140 1.0 8.0 0.00 0.00 0.00 100 1010.0
20260905231117 149 108 0.0 5.0 0.00 0.00 0.00 100 1010.0
20260905231113 149 115 2.0 7.0 0.00 0.00 0.00 100 1010.0
20260905230607 149 123 3.0 5.0 0.00 0.00 0.00 100 1010.0
20260905225604 149 143 0.0 6.0 0.00 0.00 0.00 100 1009.9
20260905225056 149 143 1.0 6.0 0.00 0.00 0.00 100 1010.0
20260905224557 149 77 1.0 5.0 0.00 0.00 0.00 100 1010.2
20260905224059 149 15 0.0 4.0 0.00 0.00 0.00 100 1010.0
20260905223555 149 136 0.0 4.0 0.00 0.00 0.00 100 1010.0
20260905223315 149 136 0.0 6.0 0.00 0.00 0.00 100 1010.0
20260905222522 148 146 2.0 6.0 0.00 0.00 0.00 100 1010.2
20260905222007 149 144 0.0 6.0 0.00 0.00 0.00 100 1010.2
20260905221506 149 227 0.0 6.0 0.00 0.00 0.00 100 1010.2
20260905221233 149 247 0.0 5.0 0.00 0.00 0.00 100 1010.3
20260905220444 149 239 3.0 5.0 0.00 0.00 0.00 100 1010.4
20260905220214 149 136 0.0 6.0 0.00 0.00 0.00 100 1010.4
20260905215433 149 137 2.0 6.0 0.00 0.00 0.00 100 1010.4
20260905214911 149 123 0.0 5.0 0.00 0.00 0.00 100 1010.4
20260905214406 149 146 0.0 7.0 0.00 0.00 0.00 100 1010.4
20260905213903 149 153 0.0 7.0 0.00 0.00 0.00 100 1010.4
20260905213401 149 116 0.0 2.0 0.00 0.00 0.00 100 1010.4
20260905212858 148 116 0.0 5.0 0.00 0.00 0.00 100 1010.4
20260905212357 148 116 2.0 5.0 0.00 0.00 0.00 100 1010.5
20260905211841 148 102 0.0 3.0 0.00 0.00 0.00 100 1010.5
20260905211319 149 102 0.0 4.0 0.00 0.00 0.00 100 1010.6
20260905210757 149 102 0.0 7.0 0.00 0.00 0.00 100 1010.6
20260905210528 149 136 4.0 7.0 0.00 0.00 0.00 100 1010.7
20260905205759 150 125 2.0 6.0 0.00 0.00 0.00 100 1010.7
20260905205258 150 237 1.0 9.0 0.00 0.00 0.00 100 1010.8
20260905204744 150 139 1.0 9.0 0.00 0.00 0.00 100 1010.9
20260905204242 150 82 0.0 8.0 0.00 0.00 0.00 100 1010.9
20260905203741 149 161 4.0 8.0 0.00 0.00 0.00 100 1011.1
20260905203241 150 180 0.0 7.0 0.00 0.00 0.00 100 1011.2
20260905202732 150 232 0.0 6.0 0.00 0.00 0.00 100 1011.1
20260905202232 150 213 0.0 7.0 0.00 0.00 0.00 100 1011.3
20260905201715 149 153 2.0 7.0 0.00 0.00 0.00 100 1011.4
20260905201215 150 180 3.0 4.0 0.00 0.00 0.00 100 1011.5
20260905200703 150 9 0.0 2.0 0.00 0.00 0.00 100 1011.6
20260905200431 149 9 0.0 3.0 0.00 0.00 0.00 100 1011.7
20260905195657 149 11 2.0 6.0 0.00 0.00 0.00 100 1011.7
20260905195157 150 125 1.0 8.0 0.00 0.00 0.00 100 1011.9
20260905194656 150 201 2.0 8.0 0.00 0.00 0.00 100 1011.9
20260905194143 150 296 0.0 8.0 0.00 0.00 0.00 100 1012.0
20260905193641 149 22 0.0 9.0 0.00 0.00 0.00 100 1012.1
20260905193139 149 133 4.0 9.0 0.00 0.00 0.00 100 1012.2
20260905192635 149 153 4.0 9.0 0.00 0.00 0.00 100 1012.3
20260905192135 149 191 4.0 8.0 0.00 0.00 0.00 100 1012.4
20260905191630 150 116 4.0 5.0 0.00 0.00 0.00 100 1012.5
20260905191358 150 185 0.0 4.0 0.00 0.00 0.00 100 1012.5
20260905190614 149 168 2.0 7.0 0.00 0.00 0.00 100 1012.8
20260905190113 149 175 3.0 10.0 0.00 0.00 0.00 100 1012.9
20260905185611 149 18 5.0 10.0 0.00 0.00 0.00 100 1012.9
20260905185112 149 1 1.0 10.0 0.00 0.00 0.00 100 1013.0
20260905184606 148 223 0.0 10.0 0.00 0.00 0.00 100 1013.0
20260905184333 149 45 1.0 11.0 0.00 0.00 0.00 100 1013.2
20260905183602 148 177 4.0 11.0 0.00 0.00 0.00 100 1013.3
20260905183102 149 156 3.0 6.0 0.00 0.00 0.00 100 1013.4
20260905182603 149 115 0.0 9.0 0.00 0.00 0.00 100 1013.5
20260905182101 148 157 2.0 9.0 0.00 0.00 0.00 100 1013.6
20260905181601 149 139 0.0 7.0 0.00 0.00 0.00 100 1013.6
20260905181059 149 151 0.0 11.0 0.00 0.00 0.00 100 1013.8
20260905180556 148 108 3.0 11.0 0.00 0.00 0.00 100 1014.0
20260905180328 148 156 6.0 9.0 0.00 0.00 0.00 100 1014.0
20260905175557 148 174 6.0 12.0 0.00 0.00 0.00 100 1014.1
20260905175057 148 130 4.0 12.0 0.00 0.00 0.00 100 1014.3
20260905174557 148 26 1.0 8.0 0.00 0.00 0.00 100 1014.3
20260905174057 147 142 2.0 7.0 0.00 0.00 0.00 100 1014.5
20260905173556 148 146 3.0 7.0 0.00 0.00 0.00 100 1014.4
20260905173057 148 14 0.0 7.0 0.00 0.00 0.00 100 1014.5
20260905172557 148 157 1.0 5.0 0.00 0.00 0.00 100 1014.5
20260905172053 148 167 3.0 5.0 0.00 0.00 0.00 100 1014.7
20260905171539 148 147 1.0 6.0 0.00 0.00 0.00 100 1014.6
20260905171039 147 135 4.0 10.0 0.00 0.00 0.00 100 1014.7
20260905170808 147 91 6.0 10.0 0.00 0.00 0.00 100 1014.7
20260905170029 147 115 0.0 9.0 0.00 0.00 0.00 100 1014.7
20260905165801 148 149 1.0 9.0 0.00 0.00 0.00 100 1014.7
20260905165021 148 133 4.0 6.0 0.00 0.00 0.00 100 1014.8
20260905164516 147 109 0.0 9.0 0.00 0.00 0.00 100 1014.9
20260905164006 147 149 0.0 9.0 0.00 0.00 0.00 100 1014.9
20260905163734 147 161 3.0 9.0 0.00 0.00 0.00 100 1014.9
20260905163003 147 150 5.0 9.0 0.00 0.00 0.00 100 1014.8
20260905162502 147 143 2.0 8.0 0.00 0.00 0.00 100 1014.8
20260905162232 147 180 5.0 8.0 0.00 0.00 0.00 100 1014.8
20260905161732 147 125 0.0 8.0 0.00 0.00 0.00 100 1014.9
20260905160959 146 182 5.0 8.0 0.00 0.00 0.00 100 1015.0
20260905160729 147 140 4.0 8.0 0.00 0.00 0.00 100 1014.9
20260905155959 146 146 0.0 11.0 0.00 0.00 0.00 100 1014.9
20260905155456 147 170 0.0 11.0 0.00 0.00 0.00 100 1014.9
20260905154957 147 188 5.0 9.0 0.00 0.00 0.00 100 1014.8
20260905154458 146 217 3.0 9.0 0.00 0.00 0.00 100 1014.8
20260905153958 146 151 3.0 9.0 0.00 0.00 0.00 100 1014.8
20260905153457 146 244 5.0 9.0 0.00 0.00 0.00 100 1014.8
20260905152956 146 151 2.0 9.0 0.00 0.00 0.00 100 1014.9
20260905152727 146 239 6.0 9.0 0.00 0.00 0.00 100 1014.9
20260905151957 147 229 2.0 8.0 0.00 0.00 0.00 100 1014.9
20260905151458 146 246 0.0 7.0 0.00 0.00 0.00 100 1014.8
20260905150957 146 236 1.0 7.0 0.00 0.00 0.00 100 1014.9
20260905150457 145 222 0.0 8.0 0.00 0.00 0.00 100 1014.9
20260905145956 145 164 4.0 8.0 0.00 0.00 0.00 100 1014.9
20260905145456 145 187 0.0 7.0 0.00 0.00 0.00 100 1014.9
20260905144951 145 123 4.0 7.0 0.00 0.00 0.00 100 1014.8
20260905144451 145 137 0.0 6.0 0.00 0.00 0.00 100 1014.7
20260905143942 145 170 0.0 6.0 0.00 0.00 0.00 100 1014.7
20260905143439 145 136 0.0 6.0 0.00 0.00 0.00 100 1014.8
20260905143210 145 220 1.0 6.0 0.00 0.00 0.00 100 1014.7
20260905142712 145 113 0.0 3.0 0.00 0.00 0.00 100 1014.7
20260905141919 145 113 0.0 3.0 0.00 0.00 0.00 100 1014.7
20260905141344 144 113 0.0 6.0 0.00 0.00 0.00 100 1014.7
20260905140833 144 125 1.0 6.0 0.00 0.00 0.00 100 1014.6
20260905140331 144 154 4.0 5.0 0.00 0.00 0.00 100 1014.6
20260905135830 144 154 0.0 5.0 0.00 0.00 0.00 100 1014.6
20260905135330 144 181 0.0 0.0 0.00 0.00 0.00 100 1014.5
20260905134830 144 181 0.0 0.0 0.00 0.00 0.00 2 1014.4
20260905134311 144 181 0.0 0.0 0.00 0.00 0.00 4 1014.4
20260905133808 144 181 0.0 0.0 0.00 0.00 0.00 14 1014.4
20260905133300 143 181 0.0 0.0 0.00 0.00 0.00 29 1014.5
20260905132754 143 181 0.0 0.0 0.00 0.00 0.00 47 1014.5
20260905132242 143 181 0.0 0.0 0.00 0.00 0.00 65 1014.4
20260905131741 143 181 0.0 0.0 0.00 0.00 0.00 96 1014.3
20260905131509 143 181 0.0 0.0 0.00 0.00 0.00 100 1014.3
20260905130714 143 181 0.0 0.0 0.00 0.00 0.00 100 1014.3
20260905130215 143 181 0.0 0.0 0.00 0.00 0.00 100 1014.2
20260905125714 143 181 0.0 0.0 0.00 0.00 0.00 100 1014.2
20260905125212 143 181 0.0 0.0 0.00 0.00 0.00 100 1014.2
20260905124658 143 181 0.0 0.0 0.00 0.00 0.00 100 1014.0
20260905124157 143 181 0.0 0.0 0.00 0.00 0.00 100 1013.9
20260905123635 143 181 0.0 0.0 0.00 0.00 0.00 100 1013.9
20260905123127 142 181 0.0 0.0 0.00 0.00 0.00 100 1013.9
20260905122617 143 181 0.0 0.0 0.00 0.00 0.00 100 1013.9
20260905122117 142 181 0.0 0.0 0.00 0.00 0.00 100 1013.9
20260905121554 142 181 0.0 0.0 0.00 0.00 0.00 100 1013.9
20260905121041 143 181 0.0 0.0 0.00 0.00 0.00 100 1013.8
20260905120539 142 181 0.0 0.0 0.00 0.00 0.00 100 1013.8
20260905120248 142 181 0.0 0.0 0.00 0.00 0.00 100 1013.8
20260905115512 142 181 0.0 0.0 0.00 0.00 0.00 100 1013.6
20260905115002 142 181 0.0 0.0 0.00 0.00 0.00 100 1013.5
20260905114457 143 181 0.0 0.0 0.00 0.00 0.00 100 1013.5
20260905113935 143 181 0.0 0.0 0.00 0.00 0.00 100 1013.5
20260905113407 143 181 0.0 0.0 0.00 0.00 0.00 100 1013.5
20260905113138 143 181 0.0 0.0 0.00 0.00 0.00 95 1013.3
20260905112629 143 181 0.0 0.0 0.00 0.00 0.00 92 1013.3
20260905111856 143 181 0.0 0.0 0.00 0.00 0.00 92 1013.4
20260905111604 143 181 0.0 0.0 0.00 0.00 0.00 92 1013.4
20260905110829 143 181 0.0 0.0 0.00 0.00 0.00 91 1013.3
20260905110326 143 181 0.0 0.0 0.00 0.00 0.00 45 1013.3
20260905105828 143 181 0.0 0.0 0.00 0.00 0.00 41 1013.2
20260905105324 143 181 0.0 0.0 0.00 0.00 0.00 41 1013.2
20260905104817 143 181 0.0 0.0 0.00 0.00 0.00 33 1013.2
20260905104254 143 181 0.0 0.0 0.00 0.00 0.00 30 1013.2
20260905103731 143 181 0.0 0.0 0.00 0.00 0.00 26 1013.2
20260905103223 143 181 0.0 0.0 0.00 0.00 0.00 23 1013.2
20260905102713 143 181 0.0 0.0 0.00 0.00 0.00 19 1013.2
20260905102212 143 181 0.0 0.0 0.00 0.00 0.00 17 1013.2
20260905101712 143 181 0.0 0.0 0.00 0.00 0.00 15 1013.3
20260905101212 143 181 0.0 0.0 0.00 0.00 0.00 15 1013.2
20260905100706 143 181 0.0 0.0 0.00 0.00 0.00 13 1013.2
20260905100204 143 181 0.0 0.0 0.00 0.00 0.00 10 1013.1
20260905095658 143 181 0.0 0.0 0.00 0.00 0.00 8 1013.1
20260905095158 143 181 0.0 0.0 0.00 0.00 0.00 7 1013.0
20260905094658 143 181 0.0 0.0 0.00 0.00 0.00 7 1013.0
20260905094145 143 181 0.0 0.0 0.00 0.00 0.00 6 1013.0
20260905093629 143 181 0.0 0.0 0.00 0.00 0.00 5 1013.0
20260905093356 143 181 0.0 0.0 0.00 0.00 0.00 5 1013.0
20260905092857 143 181 0.0 0.0 0.00 0.00 0.00 4 1013.0
20260905092106 143 181 0.0 0.0 0.00 0.00 0.00 4 1013.0
20260905091545 143 181 0.0 0.0 0.00 0.00 0.00 3 1013.0
20260905091044 143 181 0.0 0.0 0.00 0.00 0.00 2 1013.0
20260905090809 143 181 0.0 0.0 0.00 0.00 0.00 2 1013.1
20260905090530 143 181 0.0 0.0 0.00 0.00 0.00 1 1013.0
20260905085525 143 181 0.0 0.0 0.00 0.00 0.00 1 1013.1
20260905085025 143 181 0.0 0.0 0.00 0.00 0.00 100 1013.1
20260905084502 143 181 0.0 0.0 0.00 0.00 0.00 100 1013.2
20260905084214 143 181 0.0 0.0 0.00 0.00 0.00 100 1013.2
20260905083428 143 181 0.0 3.0 0.00 0.00 0.00 100 1013.2
20260905082927 144 181 0.0 3.0 0.00 0.00 0.00 100 1013.2
20260905082417 144 125 0.0 1.0 0.00 0.00 0.00 100 1013.2
20260905082148 144 125 0.0 6.0 0.00 0.00 0.00 100 1013.3
20260905081647 144 125 1.0 6.0 0.00 0.00 0.00 100 1013.3
20260905080913 144 174 0.0 0.0 0.00 0.00 0.00 100 1013.3
20260905080403 144 174 0.0 0.0 0.00 0.00 0.00 100 1013.5
20260905075848 143 174 0.0 0.0 0.00 0.00 0.00 100 1013.4
20260905075838 144 174 0.0 0.0 0.00 0.00 0.00 100 1013.4
20260905074829 144 174 0.0 0.0 0.00 0.00 0.00 100 1013.5
20260905074326 144 174 0.0 0.0 0.00 0.00 0.00 100 1013.5
20260905073821 144 174 0.0 0.0 0.00 0.00 0.00 100 1013.6